www.pogodaiklimat.ru

Погода и климат >> Архив погоды >> Украина >> Запорожье


АРХИВ ПОГОДЫ в Запорожье

Время (UTC), дата Ветер
(напр.,м/с)
 
Видим.   Явления Облачность Т
(С)
Тd
(С)
f
(%)
Тe
(С)
Тes
(С)
Комфортность P
(гПа)
Po
(гПа)
Тmin
(С)
Tmax
(С)
R
(мм)
R24
(мм)
S
(см)
00 16.10 СВ 2 10 км ясно +12.5 +8.2 75 +12 +12 тепло 1027.5 1014.0
03 16.10 С 2 10 км ясно +8.6 +6.7 88 +7 +7 по сезону 1028.0 1014.3
06 16.10 В 2 10 км ясно +16.4 +9.8 65 +17 +18 тепло 1028.0 1014.7 +8.4
09 16.10 СВ 3 10 км ясно +23.5 +11.2 46 +25 +30 комфорт 1027.3 1014.3
12 16.10 СВ 5 10 км ясно +25.8 +7.9 32 +26 +28 жарко 1025.9 1013.0
15 16.10 С 2 10 км ясно +21.6 +9.2 45 +23 +23 комфорт 1025.7 1012.7
18 16.10 СВ 2 10 км ясно +17.4 +8.5 56 +18 +18 тепло 1026.3 1013.1 +26.0
21 16.10 СВ 3 10 км ясно +14.4 +8.6 68 +14 +14 тепло 1026.5 1013.1
00 17.10 СВ 2 10 км ясно +12.3 +7.8 74 +11 +11 тепло 1026.4 1012.9
03 17.10 СВ 3 10 км ясно +10.9 +7.4 79 +9 +9 тепло 1026.6 1013.1
06 17.10 СВ 2 10 км 3/0
[Ci fib]
+15.4 +10.0 70 +15 +16 тепло 1026.6 1013.3 +10.4
09 17.10 В 6 10 км 1/0
[Ci fib]
+22.3 +10.5 47 +24 +26 комфорт 1025.8 1012.8
12 17.10 СВ 5 10 км ясно +24.5 +9.3 38 +25 +27 комфорт 1024.5 1011.6
15 17.10 С 2 10 км ясно +20.5 +7.8 44 +22 +22 комфорт 1024.0 1010.9
18 17.10 СВ 3 10 км ясно +16.4 +7.6 56 +16 +16 тепло 1024.2 1010.9 +24.7
21 17.10 СВ 3 10 км ясно +14.3 +7.1 62 +13 +13 тепло 1024.3 1010.9
00 18.10 СВ 2 10 км ясно +11.9 +6.0 67 +11 +11 тепло 1024.4 1010.9
03 18.10 СВ 3 10 км ясно +10.7 +6.3 74 +9 +9 тепло 1023.9 1010.4
06 18.10 СВ 3 10 км ясно +15.3 +8.1 62 +15 +16 тепло 1023.8 1010.5 +9.6
09 18.10 В 3 10 км ясно +21.8 +9.7 46 +23 +28 комфорт 1022.6 1009.6
12 18.10 СВ 4 10 км ясно +24.9 +7.1 32 +25 +27 комфорт 1020.4 1007.6
15 18.10 СВ 2 10 км ясно +20.7 +6.6 40 +22 +22 комфорт 1019.6 1006.6
18 18.10 СВ 2 10 км ясно +14.6 +4.9 52 +14 +14 тепло 1020.0 1006.7 +24.9
21 18.10 СВ 2 10 км ясно +11.0 +4.0 62 +10 +10 тепло 1020.3 1006.8
00 19.10 СВ 3 10 км ясно +11.2 +4.9 65 +10 +10 тепло 1019.8 1006.3
03 19.10 СВ 3 10 км ясно +9.6 +4.8 72 +7 +7 по сезону 1019.2 1005.7
06 19.10 В 3 10 км ясно +12.3 +6.4 67 +11 +12 тепло 1018.8 1005.4 +9.0
09 19.10 В 3 10 км 4/0
[Ci fib]
+19.7 +10.1 54 +21 +25 комфорт 1017.3 1004.3
12 19.10 ЮВ 1 10 км 1/0
[Cc]
+22.8 +9.2 42 +24 +28 комфорт 1015.9 1003.0
15 19.10 З 1 10 км 8/0
[Ci fib]
+17.0 +8.9 59 +18 +18 тепло 1015.7 1002.6
18 19.10 З 3 5000 м дым 5/0
[Ci fib]
+12.4 +7.9 74 +11 +11 тепло 1015.8 1002.5 +22.8
21 19.10 ЮЗ 1 8000 м дым 8/0
[Ac trans Ci fib]
+12.0 +8.7 80 +12 +12 тепло 1015.8 1002.5
00 20.10 З 2 4600 м дымка 6/0
[Ac trans Ci fib]
+10.2 +7.8 85 +9 +9 тепло 1015.3 1001.9
03 20.10 штиль 0 2700 м дымка 8/0
[Ac trans Ci fib]
+9.9 +8.3 90 +9 +9 тепло 1015.4 1002.0
06 20.10 штиль 0 2800 м дымка {туман} 6/0
[Ac trans Ci fib]
+11.5 +10.1 91 +11 +12 тепло 1015.8 1002.4 +8.4
09 20.10 штиль 0 8000 м дымка 5/0
[Ci fib]
+18.8 +10.6 59 +19 +26 тепло 1015.3 1002.3
12 20.10 СЗ 2 10 км 8/0
[Ac trans Ci fib]
+20.6 +10.1 51 +23 +25 комфорт 1014.6 1001.7
15 20.10 СЗ 2 10 км 6/0
[Ci fib]
+15.3 +9.2 67 +15 +15 тепло 1015.0 1001.8
18 20.10 СЗ 3 7000 м дым ясно +12.3 +8.6 78 +11 +11 тепло 1015.0 1001.7 +21.0
21 20.10 С 2 6000 м дымка ясно +9.9 +7.8 87 +8 +8 тепло 1015.3 1001.9
00 21.10 СЗ 3 6000 м дымка 8/0
[Ci fib]
+9.5 +7.3 86 +7 +7 тепло 1015.2 1001.7
03 21.10 С 3 4100 м дымка 6/0
[Ci fib]
+7.7 +6.3 91 +5 +5 по сезону 1015.6 1002.0
06 21.10 СВ 3 3000 м дымка 8/0
[Ac trans]
+12.4 +9.8 84 +11 +11 тепло 1016.5 1003.2 +7.7
09 21.10 СВ 4 6000 м дымка 6/0
[Ac trans]
+17.8 +11.4 66 +18 +20 тепло 1016.9 1003.8
12 21.10 С 4 10 км 9/8 1170 м
[Cu med, cong Ac trans]
+18.2 +11.3 64 +18 +19 тепло 1016.9 1003.8
15 21.10 С 4 10 км 9/9 1500 м
[Sc]
+16.7 +10.8 68 +16 +16 тепло 1017.5 1004.4
18 21.10 С 3 10 км 9/0
[Ac trans]
+13.8 +9.0 73 +13 +13 тепло 1018.8 1005.5 +19.0
21 21.10 С 4 10 км 9/0
[Ac und]
+12.8 +9.3 79 +11 +11 тепло 1019.4 1006.0
00 22.10 С 3 10 км 9/0
[Ac und]
+10.9 +8.1 83 +9 +9 тепло 1019.7 1006.2
03 22.10 С 4 10 км 9/0
[Ac und]
+9.7 +7.1 84 +7 +7 тепло 1020.0 1006.5
06 22.10 СЗ 3 10 км 8/0
[Ac trans]
+9.7 +7.5 86 +7 +8 тепло 1020.4 1006.9 +9.2
09 22.10 СЗ 5 10 км 9/9 570 м
[Sc]
+11.3 +7.6 78 +9 +9 по сезону 1020.6 1007.2
12 22.10 СЗ 5 10 км 9/9 720 м
[Sc]
+13.5 +8.1 70 +12 +12 тепло 1019.2 1005.9
15 22.10 СЗ 2 10 км 9/8 660 м
[Sc]
+10.8 +7.5 80 +10 +10 тепло 1019.2 1005.7
18 22.10 СЗ 2 10 км 8/8 930 м
[Sc]
+10.4 +6.7 78 +9 +9 тепло 1019.1 1005.6 +13.6

 

Местоположение метеостанции Запорожье (Запорожская область, Украина): широта 47.80 долгота 35.02 высота над уровнем моря 112 м.

В архиве по умолчанию представлена погода в Запорожье за последнюю неделю. Архивные данные за месяц целиком и за предыдущие месяцы, начиная с января 2011 года, Вы можете получить, выбрав интересующий диапазон дат из раскрывающегося списка и нажав кнопку "Ввод!".


*Определитесь, кто Вы:
робот инопланетянин человек

Внимание! Время в таблицах - всемирное. Для получения местного времени необходимо прибавить поправку, которая в Запорожье равна 2 ч.

Смотрите также архив погоды в соседних городах и на ближайших метеорологических станциях:

Погода в Никополе (Днепропетровская область, Украина) (49 км)
Погода в Пришибе (Запорожская область, Украина) (63 км)
Погода в Лошкарёвке (Днепропетровская область, Украина) (65 км)
Погода в Синельниково (Днепропетровская область, Украина) (76 км)
Погода в Днепре (Днепропетровская область, Украина) (89 км)
Погода в Гуляйполе (Запорожская область, Украина) (93 км)
Погода в Чаплино (Днепропетровская область, Украина) (97 км)
Погода в Павлограде (Днепропетровская область, Украина) (101 км)
Погода в Комиссаровке (Днепропетровская область, Украина) (109 км)
Погода в Мелитополе (Запорожская область, Украина) (111 км)

Пояснения к столбцам:

Ветер - указаны скорость ветра в м/с - средняя за 10 мин, порывы в срок и между сроками (в фигурных скобках) и направление, откуда дует ветер: С - северный, СВ - северо-восточный, В - восточный, ЮВ - юго-восточный, Ю - южный, ЮЗ - юго-западный, З - западный, СЗ - северо-западный.
Видимость - горизонтальная дальность видимости в метрах или километрах. При видимости от 1 до 10 км при отсутствии осадков обычно наблюдается дымка, при ухудшении видимости до 1 км и менее - туман. В сухую погоду видимость может ухудшаться дымом, пылью или мглою.
Явления - указаны атмосферные явления, наблюдавшиеся в срок или в последний час перед сроком; фигурными скобками обозначены явления, наблюдавшиеся между сроками (за 1-3 часа до срока); квадратными скобками обозначены град или гололедные отложения с указанием их диаметра в мм.
Облачность - указаны через наклонную черту общая и нижняя облачность в баллах и высота нижней границы облаков в метрах; квадратными скобками обозначены формы облаков: Ci - перистые, Cs - перисто-слоистые, Cc - перисто-кучевые, Ac - высококучевые, As - высокослоистые, Sc - слоисто-кучевые, Ns - слоисто-дождевые, Cu - кучевые, Cb - кучево-дождевые. Подробнее классификацию облаков см. в Атласе облаков (PDF).
T - Температура воздуха - температура, измеренная на высоте 2 м над землей.
Td - Температура точки росы - температура, при понижении до которой содержащийся в воздухе водяной пар достигнет насыщения.
f - Относительная влажность воздуха - влажноcть воздуха, измеренная на высоте 2 м над землей.
Te - Эффективная температура - температура, которую ощущает одетый по сезону человек в тени. Характеристика душности погоды. При расчете учитывается влияние влажности воздуха и скорости ветра на теплоощущения человека.
Tes - Эффективная температура на солнце - температура, которую ощущает человек, с поправкой на солнечный нагрев. Характеристика знойности погоды. Зависит от высоты солнца над горизонтом, облачности и скорости ветра. Ночью, в пасмурную погоду, а также при ветре 12 м/с и более поправка равна нулю.
P - Атмосферное давление - приведенное к уровню моря атмосферное давление.
Po - Атмосферное давление - измеренное на уровне метеостанции атмосферное давление.
Tmin - Минимальная температура - минимум температуры воздуха на высоте 2 м над землей.
Tmax - Максимальная температура - максимум температуры воздуха на высоте 2 м над землей.
R - Количество осадков - Количество выпавших осадков за период времени, мм. При наведении курсора мыши на число - период времени, за который выпало указанное количество осадков.
R24 - Количество осадков - Количество выпавших осадков за 24 часа, мм.
S - Снежный покров - Высота снежного покрова, см. При наведении курсора мыши на число - состояние снежного покрова и степень покрытия местности в баллах.